This is the latest recevied weather packets stored in our database for station/object K5DLF-13. If no packets are shown the sender has not sent any weather packets the latest 10 day(s).
| Time | Temp. | Humidity | Pressure | Rain* | Wind** | Luminosity | Snow |
|---|---|---|---|---|---|---|---|
| 1777753804 | 26.11° C | 42% | 1015.7 hPa | 0 mm | - | 826 W/m² | - |
| 1777753504 | 26.11° C | 42% | 1015.7 hPa | 0 mm | - | 680 W/m² | - |
| 1777753204 | 26.11° C | 43% | 1015.8 hPa | 0 mm | - | 846 W/m² | - |
| 1777752904 | 26.11° C | 48% | 1015.9 hPa | 0 mm | - | 851 W/m² | - |
| 1777752604 | 26.11° C | 44% | 1015.9 hPa | 0 mm | - | 865 W/m² | - |
| 1777752304 | 25.56° C | 45% | 1015.8 hPa | 0 mm | - | 868 W/m² | - |
| 1777752004 | 25.56° C | 46% | 1016 hPa | 0 mm | - | 875 W/m² | - |
| 1777751704 | 25.56° C | 43% | 1016 hPa | 0 mm | - | 889 W/m² | - |
| 1777751404 | 25.56° C | 45% | 1016.1 hPa | 0 mm | - | 898 W/m² | - |
| 1777751104 | 25.56° C | 48% | 1016.1 hPa | 0 mm | - | 905 W/m² | - |
| 1777750804 | 25° C | 48% | 1016.1 hPa | 0 mm | - | 853 W/m² | - |
| 1777750504 | 25° C | 47% | 1016.4 hPa | 0 mm | - | 752 W/m² | - |
| 1777750204 | 25° C | 47% | 1016.5 hPa | 0 mm | - | 923 W/m² | - |
| 1777749904 | 25° C | 50% | 1016.5 hPa | 0 mm | - | 921 W/m² | - |
| 1777749604 | 25° C | 48% | 1016.6 hPa | 0 mm | - | 926 W/m² | - |
| 1777749304 | 25° C | 49% | 1016.4 hPa | 0 mm | - | 932 W/m² | - |
| 1777749004 | 25° C | 50% | 1016.5 hPa | 0 mm | - | 933 W/m² | - |
| 1777748704 | 25° C | 51% | 1016.5 hPa | 0 mm | - | 937 W/m² | - |
| 1777748404 | 24.44° C | 50% | 1016.5 hPa | 0 mm | - | 942 W/m² | - |
| 1777748104 | 24.44° C | 49% | 1016.8 hPa | 0 mm | - | 942 W/m² | - |
| 1777747804 | 24.44° C | 51% | 1016.8 hPa | 0 mm | - | 940 W/m² | - |
| 1777747505 | 24.44° C | 49% | 1017 hPa | 0 mm | - | 946 W/m² | - |
| 1777747204 | 24.44° C | 51% | 1017.1 hPa | 0 mm | - | 947 W/m² | - |
| 1777746904 | 24.44° C | 50% | 1017.2 hPa | 0 mm | - | 949 W/m² | - |
| 1777746605 | 23.89° C | 51% | 1017.1 hPa | 0 mm | - | 947 W/m² | - |
* Rain latest hour (hover to see other rain measurements)
** Current wind speed in m/s (hover to see current wind gust speed)